DW7816 Weather Reports


time (UTC)temp
C
wind
direction
speed
KPH
gust
KPH
rain 1hr
cm
rain 24hr
cm
rain mn
cm
humidity
%
barometer
mb
20260901080909 20 231 0.0 0.0 0.00 0.00 0.00 93 1016.0
20260901074801 20 231 0.0 0.0 0.00 0.00 0.00 93 1016.0
20260901071524 20 231 0.0 0.0 0.00 0.00 0.00 92 1015.9
20260901070532 20 231 0.0 0.0 0.00 0.00 0.00 91 1015.9
20260901063248 21 231 0.0 0.0 0.00 0.00 0.00 91 1016.1
20260901062214 21 231 0.0 0.0 0.00 0.00 0.00 91 1016.1
20260901060101 21 231 0.0 0.0 0.00 0.00 0.00 91 1015.9
20260901055036 21 231 0.0 0.0 0.00 0.00 0.00 90 1015.9
20260901054058 21 231 0.0 0.0 0.00 0.00 0.00 90 1015.9
20260901053117 21 231 0.0 0.0 0.00 0.00 0.00 90 1015.9
20260901052051 21 231 0.0 0.0 0.00 0.00 0.00 90 1015.8
20260901051112 21 231 0.0 0.0 0.00 0.00 0.00 90 1015.7
20260901050045 21 231 0.0 0.0 0.00 0.00 0.00 90 1015.7
20260901045051 21 231 0.0 0.0 0.00 0.00 0.00 90 1015.7
20260901044111 21 231 0.0 0.0 0.00 0.00 0.00 90 1015.6
20260901043049 22 231 0.0 0.0 0.00 0.00 0.00 89 1015.6
20260901042104 22 231 0.0 0.0 0.00 0.00 0.00 89 1015.6
20260901041105 22 231 0.0 0.0 0.00 0.00 0.00 88 1015.6
20260901040106 22 231 0.0 0.0 0.00 0.00 0.00 88 1015.6
20260901035113 22 231 0.0 0.0 0.00 0.00 0.00 88 1015.7
20260901034111 22 231 0.0 0.0 0.00 0.00 0.00 88 1015.7
20260901033131 22 231 0.0 0.0 0.00 0.00 0.00 88 1015.7
20260901032117 22 231 0.0 0.0 0.00 0.00 0.00 87 1015.7
20260901031112 23 231 0.0 0.0 0.00 0.00 0.00 88 1015.6
20260901030113 23 231 0.0 0.0 0.00 0.00 0.00 87 1015.5
20260901025055 23 231 0.0 0.0 0.00 0.00 0.00 87 1015.3
20260901024033 23 231 0.0 0.0 0.00 0.00 0.00 88 1015.2
20260901023015 23 231 0.0 0.0 0.00 0.00 0.00 87 1015.1
20260901021950 23 231 0.0 0.0 0.00 0.00 0.00 86 1014.9
20260901021005 23 231 0.0 0.0 0.00 0.00 0.00 86 1014.7
20260901014856 25 231 0.0 0.0 0.00 0.00 0.00 85 1014.5
20260901013913 25 231 0.0 0.0 0.00 0.00 0.00 83 1014.3
20260901011813 26 231 0.0 0.0 0.00 0.00 0.00 81 1014.0
20260901010754 26 231 0.0 0.0 0.00 0.00 0.00 80 1013.9
20260901005726 27 231 0.0 0.0 0.00 0.00 0.00 78 1013.8
20260901004654 28 231 0.0 0.0 0.00 0.00 0.00 75 1013.8
20260901003649 28 231 0.0 0.0 0.00 0.00 0.00 72 1013.7
20260901001455 31 231 0.0 0.0 0.00 0.00 0.00 66 1013.7
20260831235314 32 231 0.0 0.0 0.00 0.00 0.00 59 1013.6
20260831234300 33 231 0.0 0.0 0.00 0.00 0.00 57 1013.6
20260831233249 34 209 0.0 0.0 0.00 0.00 0.00 51 1013.5
20260831230019 35 244 0.0 3.2 0.00 0.00 0.00 50 1013.6
20260831225033 36 311 0.0 3.2 0.00 0.00 0.00 46 1013.6
20260831222845 35 149 1.6 9.7 0.00 0.00 0.00 47 1013.6
20260831221822 35 196 0.0 4.8 0.00 0.00 0.00 43 1013.7
20260831220833 35 148 3.2 9.7 0.00 0.00 0.00 46 1013.8
20260831215813 36 172 1.6 8.0 0.00 0.00 0.00 44 1013.8
20260831214810 36 203 0.0 6.4 0.00 0.00 0.00 43 1013.8
20260831213816 36 195 1.6 8.0 0.00 0.00 0.00 45 1013.9
20260831212814 36 169 1.6 8.0 0.00 0.00 0.00 43 1013.9
20260831211757 36 221 1.6 0.0 0.00 0.00 0.00 42 1014.0
20260831210811 36 219 0.0 1.6 0.00 0.00 0.00 48 1014.0
20260831204704 36 304 1.6 8.0 0.00 0.00 0.00 51 1014.4
20260831202601 36 253 0.0 4.8 0.00 0.00 0.00 47 1014.6
20260831201527 36 123 0.0 9.7 0.00 0.00 0.00 43 1014.6
20260831200547 36 131 0.0 9.7 0.00 0.00 0.00 42 1014.7
20260831195540 36 312 1.6 12.9 0.00 0.00 0.00 48 1014.9
20260831193359 35 68 3.2 9.7 0.00 0.00 0.00 47 1015.0
20260831192405 35 209 1.6 12.9 0.00 0.00 0.00 46 1015.2
20260831191424 35 153 1.6 16.1 0.00 0.00 0.00 45 1015.1
20260831190410 35 314 1.6 16.1 0.00 0.00 0.00 47 1015.3
20260831184222 35 221 0.0 8.0 0.00 0.00 0.00 48 1015.7
20260831183239 35 287 0.0 0.0 0.00 0.00 0.00 49 1015.8
20260831181119 35 271 1.6 6.4 0.00 0.00 0.00 49 1016.1
20260831180105 35 152 0.0 4.8 0.00 0.00 0.00 53 1016.2
20260831175048 35 227 0.0 4.8 0.00 0.00 0.00 56 1016.3
20260831174107 34 286 0.0 8.0 0.00 0.00 0.00 52 1016.4
20260831173058 34 309 0.0 6.4 0.00 0.00 0.00 54 1016.4
20260831172038 33 328 1.6 9.7 0.00 0.00 0.00 56 1016.6
20260831171100 33 244 0.0 8.0 0.00 0.00 0.00 59 1016.8
20260831170052 33 271 0.0 0.0 0.00 0.00 0.00 60 1016.8
20260831165054 32 136 0.0 1.6 0.00 0.00 0.00 61 1017.0
20260831164027 32 206 1.6 9.7 0.00 0.00 0.00 61 1017.0
20260831153929 30 348 1.6 8.0 0.00 0.00 0.00 68 1017.2
20260831152944 30 255 1.6 8.0 0.00 0.00 0.00 65 1017.2
20260831152009 30 300 0.0 8.0 0.00 0.00 0.00 66 1017.2
20260831151016 29 230 0.0 9.7 0.00 0.00 0.00 70 1017.3
20260831150027 29 294 1.6 9.7 0.00 0.00 0.00 67 1017.3
20260831145052 28 200 0.0 8.0 0.00 0.00 0.00 69 1017.2
20260831144036 28 315 0.0 1.6 0.00 0.00 0.00 71 1017.3
20260831143057 27 183 1.6 6.4 0.00 0.00 0.00 73 1017.3
20260831142116 27 267 0.0 9.7 0.00 0.00 0.00 70 1017.3
20260831141056 27 252 0.0 4.8 0.00 0.00 0.00 72 1017.3
20260831140034 26 177 0.0 0.0 0.00 0.00 0.00 75 1017.3
20260831135022 26 138 0.0 0.0 0.00 0.00 0.00 76 1017.2
20260831134003 25 181 0.0 3.2 0.00 0.00 0.00 76 1017.1
20260831132951 24 243 0.0 3.2 0.00 0.00 0.00 78 1017.1
20260831130907 23 186 0.0 4.8 0.00 0.00 0.00 82 1017.0
20260831125904 22 192 0.0 3.2 0.00 0.00 0.00 85 1016.9
20260831124858 21 207 0.0 0.0 0.00 0.00 0.00 88 1016.8
20260831123844 20 207 0.0 1.6 0.00 0.00 0.00 89 1016.7
20260831122827 19 207 0.0 0.0 0.00 0.00 0.00 92 1016.5
20260831121846 18 207 0.0 0.0 0.00 0.00 0.00 92 1016.4
20260831115627 18 180 0.0 0.0 0.00 0.00 0.00 92 1016.1
20260831114645 18 180 0.0 0.0 0.00 0.00 0.00 92 1015.9
20260831113650 18 180 0.0 0.0 0.00 0.00 0.00 92 1015.7
20260831112625 18 180 0.0 0.0 0.00 0.00 0.00 92 1015.7
20260831111623 18 180 0.0 0.0 0.00 0.00 0.00 92 1015.6
20260831110620 18 180 0.0 0.0 0.00 0.00 0.00 92 1015.6
20260831105608 18 180 0.0 0.0 0.00 0.00 0.00 92 1015.4
20260831104624 18 180 0.0 0.0 0.00 0.00 0.00 92 1015.4
20260831103604 18 180 0.0 0.0 0.00 0.00 0.00 92 1015.5
20260831102552 18 180 0.0 0.0 0.00 0.00 0.00 92 1015.5
20260831101549 18 180 0.0 0.0 0.00 0.00 0.00 92 1015.4
20260831100601 18 180 0.0 0.0 0.00 0.00 0.00 91 1015.5
20260831095612 18 180 0.0 0.0 0.00 0.00 0.00 91 1015.5
20260831094543 18 180 0.0 0.0 0.00 0.00 0.00 91 1015.4
20260831092504 18 180 0.0 0.0 0.00 0.00 0.00 91 1015.3
20260831091459 18 180 0.0 0.0 0.00 0.00 0.00 91 1015.3
20260831090440 18 180 0.0 0.0 0.00 0.00 0.00 90 1015.3
20260831085452 19 180 0.0 0.0 0.00 0.00 0.00 90 1015.3
20260831083251 19 180 0.0 0.0 0.00 0.00 0.00 90 1015.3
20260831082229 19 180 0.0 0.0 0.00 0.00 0.00 90 1015.3